Dawson, IA

6:12 AM CDT on September 28, 2016 (GMT -0500)
Perry Municipal

Weather History for KPRO - January, 2014

Change the Weather History Date:

Tuesday, January 28, 2014

  Actual Average Record
Temperature  
Mean Temperature 4 °F -  
Max Temperature 16 °F 27 °F 56 °F (1989)
Min Temperature -8 °F 7 °F -19 °F (1972)
Degree Days  
Heating Degree Days 61    
Moisture  
Dew Point -11 °F    
Average Humidity 55    
Maximum Humidity 74    
Minimum Humidity 30    
Precipitation  
Precipitation 0.00 in - - ()
Sea Level Pressure  
Sea Level Pressure 30.35 in    
Wind  
Wind Speed 8 mph (West)    
Max Wind Speed 21 mph    
Max Gust Speed 26 mph    
Visibility 10 miles    
Events      
Averages and records for this station are not official NWS values.
T = Trace of Precipitation, MM = Missing Value Source: NWS Daily Summary

Daily Weather History Graph

Daily Weather History Graph

Search for Another Location

Airport or City:

Trip Planner

Search our weather history database for the weather conditions in past years. The results will help you decide how hot, cold, wet, or windy it might be!

Date:

Astronomy

Jan. 28, 2014 Rise Set
Actual Time 7:32 AM CST 5:26 PM CST
Civil Twilight 7:03 AM CST 5:56 PM CST
Nautical Twilight 6:29 AM CST 6:30 PM CST
Astronomical Twilight 5:56 AM CST 7:03 PM CST
Moon 5:15 AM CST 3:17 PM CST
Length of Visible Light 10h 53m
Length of Day
9h 54m
Waning Crescent, 7% of the Moon is Illuminated
Jan 28
Waning Crescent
Jan 30
New
Feb 6
First Quarter
Feb 14
Full
Feb 22
Last Quarter

Hourly Weather History & Observations

Time (CST) Temp. Windchill Dew Point Humidity Pressure Visibility Wind Dir Wind Speed Gust Speed Precip Events Conditions
12:15 AM -6.5 °F -17.5 °F -13.9 °F 70% 30.45 in 10.0 mi WNW 4.6 mph - N/A   Clear
12:35 AM -6.7 °F -15.5 °F -14.1 °F 70% 30.45 in 10.0 mi West 3.5 mph - N/A   Clear
12:55 AM -6.7 °F -17.7 °F -13.5 °F 72% 30.45 in 10.0 mi West 4.6 mph - N/A   Clear
1:15 AM -7.4 °F -20.4 °F -14.6 °F 71% 30.45 in 10.0 mi WSW 5.8 mph - N/A   Clear
1:35 AM -6.9 °F -21.2 °F -13.9 °F 72% 30.44 in 10.0 mi West 6.9 mph - N/A   Clear
1:55 AM -6.3 °F -19.1 °F -13.4 °F 72% 30.44 in 10.0 mi West 5.8 mph - N/A   Clear
2:15 AM -8.1 °F -22.7 °F -14.8 °F 73% 30.44 in 10.0 mi West 6.9 mph - N/A   Clear
2:35 AM -7.8 °F -19.0 °F -14.8 °F 71% 30.44 in 10.0 mi WNW 4.6 mph - N/A   Clear
2:55 AM -7.2 °F -23.0 °F -14.1 °F 72% 30.44 in 10.0 mi WNW 8.1 mph - N/A   Clear
3:15 AM -6.7 °F -17.7 °F -13.7 °F 72% 30.44 in 10.0 mi WNW 4.6 mph - N/A   Clear
3:35 AM -7.1 °F -15.9 °F -14.1 °F 72% 30.44 in 10.0 mi WNW 3.5 mph - N/A   Clear
3:55 AM -8.1 °F -24.1 °F -14.4 °F 74% 30.43 in 10.0 mi West 8.1 mph - N/A   Clear
4:15 AM -7.4 °F -21.9 °F -14.4 °F 71% 30.43 in 10.0 mi West 6.9 mph - N/A   Clear
4:35 AM -7.6 °F -20.6 °F -14.4 °F 72% 30.43 in 10.0 mi WNW 5.8 mph - N/A   Clear
4:55 AM -7.4 °F -21.9 °F -14.3 °F 72% 30.44 in 10.0 mi West 6.9 mph - N/A   Clear
5:15 AM -6.9 °F -22.5 °F -13.9 °F 72% 30.44 in 10.0 mi West 8.1 mph - N/A   Clear
5:35 AM -6.7 °F -19.5 °F -13.9 °F 71% 30.43 in 10.0 mi West 5.8 mph - N/A   Clear
5:55 AM -8.1 °F -22.7 °F -15.0 °F 72% 30.43 in 10.0 mi West 6.9 mph - N/A   Clear
6:15 AM -8.3 °F -23.0 °F -15.0 °F 73% 30.43 in 10.0 mi West 6.9 mph - N/A   Clear
6:35 AM -7.6 °F -22.1 °F -14.6 °F 71% 30.43 in 10.0 mi West 6.9 mph - N/A   Clear
6:55 AM -8.1 °F -22.7 °F -14.8 °F 73% 30.42 in 10.0 mi West 6.9 mph - N/A   Clear
7:15 AM -8.7 °F -21.9 °F -15.5 °F 72% 30.43 in 10.0 mi WSW 5.8 mph - N/A   Clear
7:35 AM -8.5 °F -21.6 °F -15.3 °F 72% 30.42 in 10.0 mi West 5.8 mph - N/A   Clear
7:55 AM -7.1 °F -21.4 °F -14.4 °F 70% 30.41 in 10.0 mi West 6.9 mph - N/A   Clear
8:15 AM -4.5 °F -15.2 °F -11.9 °F 71% 30.41 in 10.0 mi West 4.6 mph - N/A   Clear
8:35 AM -1.5 °F -11.6 °F -10.3 °F 66% 30.41 in 10.0 mi West 4.6 mph - N/A   Clear
8:55 AM -0.6 °F -12.2 °F -9.6 °F 66% 30.42 in 10.0 mi West 5.8 mph - N/A   Clear
9:15 AM 1.4 °F -11.3 °F -8.5 °F 63% 30.42 in 10.0 mi West 6.9 mph - N/A   Clear
9:35 AM 4.5 °F -6.3 °F -6.3 °F 61% 30.41 in 10.0 mi WNW 5.8 mph - N/A   Clear
9:55 AM 7.2 °F -8.1 °F -5.6 °F 56% 30.41 in 10.0 mi West 11.5 mph - N/A   Clear
10:15 AM 8.4 °F -6.5 °F -6.5 °F 51% 30.41 in 10.0 mi WNW 11.5 mph 16.1 mph N/A   Clear
10:35 AM 10.4 °F -4.8 °F -6.2 °F 47% 30.40 in 10.0 mi WNW 12.7 mph - N/A   Clear
10:55 AM 11.5 °F -2.7 °F -5.8 °F 46% 30.40 in 10.0 mi WNW 11.5 mph 21.9 mph N/A   Clear
11:15 AM 11.8 °F -4.2 °F -7.8 °F 41% 30.39 in 10.0 mi WNW 15.0 mph 23.0 mph N/A   Clear
11:35 AM 12.2 °F -3.7 °F -8.1 °F 40% 30.38 in 10.0 mi NW 15.0 mph 21.9 mph N/A   Clear
11:55 AM 13.1 °F -0.7 °F -8.3 °F 38% 30.37 in 10.0 mi WNW 11.5 mph 20.7 mph N/A   Clear
12:15 PM 14.0 °F 0.5 °F -9.2 °F 35% 30.36 in 10.0 mi WNW 11.5 mph 20.7 mph N/A   Clear
12:35 PM 14.7 °F 0.1 °F -9.2 °F 34% 30.35 in 10.0 mi NW 13.8 mph 20.7 mph N/A   Clear
12:55 PM 14.7 °F 0.7 °F -9.4 °F 34% 30.34 in 10.0 mi WNW 12.7 mph 25.3 mph N/A   Clear
1:15 PM 15.3 °F 3.5 °F -8.7 °F 34% 30.33 in 10.0 mi WNW 9.2 mph 23.0 mph N/A   Clear
1:35 PM 15.8 °F -0.2 °F -9.2 °F 32% 30.32 in 10.0 mi WNW 17.3 mph 26.5 mph N/A   Clear
1:55 PM 16.2 °F 1.9 °F -9.0 °F 32% 30.31 in 10.0 mi WNW 13.8 mph 23.0 mph N/A   Clear
2:15 PM 16.3 °F 1.0 °F -9.9 °F 31% 30.30 in 10.0 mi West 16.1 mph 24.2 mph N/A   Clear
2:35 PM 16.9 °F 1.7 °F -9.9 °F 30% 30.29 in 10.0 mi WNW 16.1 mph 24.2 mph N/A   Clear
2:55 PM 16.5 °F 1.3 °F -10.3 °F 30% 30.29 in 10.0 mi WNW 16.1 mph 26.5 mph N/A   Clear
3:15 PM 16.5 °F -0.6 °F -10.1 °F 30% 30.29 in 10.0 mi WNW 20.7 mph 25.3 mph N/A   Clear
3:35 PM 16.7 °F 3.2 °F -9.8 °F 30% 30.29 in 10.0 mi WNW 12.7 mph 25.3 mph N/A   Clear
3:55 PM 16.3 °F 2.1 °F -9.2 °F 32% 30.29 in 10.0 mi WNW 13.8 mph 18.4 mph N/A   Clear
4:15 PM 16.2 °F 0.8 °F -10.1 °F 31% 30.29 in 10.0 mi WNW 16.1 mph 20.7 mph N/A   Clear
4:35 PM 15.6 °F -0.9 °F -10.5 °F 31% 30.29 in 10.0 mi WNW 18.4 mph 23.0 mph N/A   Clear
4:55 PM 14.9 °F 0.3 °F -10.3 °F 32% 30.28 in 10.0 mi WNW 13.8 mph - N/A   Clear
5:15 PM 14.0 °F 1.2 °F -10.5 °F 33% 30.28 in 10.0 mi WNW 10.4 mph - N/A   Clear
5:35 PM 12.2 °F 0.7 °F -10.1 °F 36% 30.28 in 10.0 mi WNW 8.1 mph - N/A   Clear
5:55 PM 11.1 °F 1.7 °F -9.6 °F 39% 30.28 in 10.0 mi NW 5.8 mph - N/A   Clear
6:15 PM 10.0 °F 0.4 °F -9.6 °F 41% 30.28 in 10.0 mi WNW 5.8 mph - N/A   Clear
6:35 PM 8.4 °F -1.6 °F -9.4 °F 44% 30.27 in 10.0 mi WNW 5.8 mph - N/A   Clear
6:55 PM 6.6 °F -5.0 °F -9.9 °F 47% 30.27 in 10.0 mi WNW 6.9 mph - N/A   Clear
7:15 PM 5.4 °F -5.2 °F -9.6 °F 50% 30.27 in 10.0 mi WNW 5.8 mph - N/A   Clear
7:35 PM 3.6 °F -8.7 °F -9.8 °F 54% 30.26 in 10.0 mi West 6.9 mph - N/A   Clear
7:55 PM 2.3 °F -8.8 °F -9.9 °F 57% 30.26 in 10.0 mi West 5.8 mph - N/A   Clear
8:15 PM 0.7 °F -12.1 °F -10.1 °F 60% 30.25 in 10.0 mi West 6.9 mph - N/A   Clear
8:35 PM 0.5 °F -12.3 °F -10.5 °F 60% 30.24 in 10.0 mi WSW 6.9 mph - N/A   Clear
8:55 PM 1.0 °F -14.9 °F -10.3 °F 59% 30.24 in 10.0 mi SW 10.4 mph - N/A   Clear
9:15 PM 1.4 °F -12.5 °F -10.3 °F 58% 30.24 in 10.0 mi WSW 8.1 mph - N/A   Clear
9:35 PM 1.4 °F -12.5 °F -10.3 °F 58% 30.24 in 10.0 mi WSW 8.1 mph - N/A   Clear
9:55 PM 0.9 °F -13.1 °F -9.9 °F 61% 30.24 in 10.0 mi SW 8.1 mph - N/A   Clear
10:15 PM 0.7 °F -14.4 °F -9.4 °F 63% 30.24 in 10.0 mi SW 9.2 mph - N/A   Clear
10:35 PM 1.9 °F -13.8 °F -8.5 °F 62% 30.23 in 10.0 mi SW 10.4 mph - N/A   Clear
10:55 PM 0.9 °F -15.1 °F -9.0 °F 63% 30.23 in 10.0 mi SW 10.4 mph - N/A   Clear
11:15 PM 3.0 °F -12.5 °F -8.3 °F 59% 30.22 in 10.0 mi SW 10.4 mph - N/A   Clear
11:35 PM 2.3 °F -13.4 °F -8.5 °F 61% 30.22 in 10.0 mi SW 10.4 mph - N/A   Clear
11:55 PM 2.1 °F -13.6 °F -8.5 °F 61% 30.22 in 10.0 mi SW 10.4 mph - N/A   Clear